Weather History for Corpus Christi, TX

Change the Weather History Date:

Saturday, February 9, 2013

  Actual Average Record
Temperature  
Mean Temperature 69 °F 59 °F  
Max Temperature 76 °F 70 °F 93 °F (1990)
Min Temperature 61 °F 49 °F 25 °F (1933)
Degree Days  
Heating Degree Days 0 7  
Month to date heating degree days 4 67  
Since 1 July heating degree days 387 694  
Cooling Degree Days 4 2  
Month to date cooling degree days 33 11  
Year to date cooling degree days 100 41  
Growing Degree Days 20 (Base 50)    
Moisture  
Dew Point 64 °F    
Average Humidity 81    
Maximum Humidity 87    
Minimum Humidity 74    
Precipitation  
Precipitation 0.02 in 0.06 in 0.98 in (1942)
Month to date precipitation 0.42 0.52  
Year to date precipitation 1.67 2.06  
Snow  
Snow 0.00 in - - ()
Month to date snowfall 0.0  
Since 1 July snowfall 0.0  
Snow Depth 0.00 in    
Sea Level Pressure  
Sea Level Pressure 29.94 in    
Wind  
Wind Speed 18 mph (ESE)    
Max Wind Speed 30 mph    
Max Gust Speed 38 mph    
Visibility 9 miles    
Events Rain    
T = Trace of Precipitation, MM = Missing Value Source: NWS Daily Summary

Daily Weather History Graph

Daily Weather History Graph

Search for Another Location

Airport:

Trip Planner

Search our weather history database for the weather conditions in past years. The results will help you decide how hot, cold, wet, or windy it might be!

Date:

Astronomy

Feb. 09, 2013 Rise Set
Actual Time 7:11 AM CST 6:17 PM CST
Civil Twilight 6:47 AM CST 6:41 PM CST
Nautical Twilight 6:19 AM CST 7:09 PM CST
Astronomical Twilight 5:52 AM CST 7:36 PM CST
Moon 6:25 AM CST (2/9) 5:58 PM CST (2/9)
Length of Visible Light 11h 53m
Length of Day
11h 05m
Waning Crescent, 0% of the Moon is Illuminated
Feb 9
Waning Crescent
Feb 10
New
Feb 17
First Quarter
Feb 25
Full
Mar 4
Last Quarter

Hourly Weather History & Observations

Time (CST) Temp. Dew Point Humidity Pressure Visibility Wind Dir Wind Speed Gust Speed Precip Events Conditions
12:37 AM 62.6 °F 57.2 °F 82% 30.06 in 10.0 mi ESE 12.7 mph - N/A   Scattered Clouds
12:51 AM 63.0 °F 57.9 °F 84% 30.05 in 10.0 mi East 10.4 mph - N/A   Scattered Clouds
1:51 AM 62.1 °F 57.0 °F 84% 30.06 in 10.0 mi ESE 8.1 mph - N/A   Mostly Cloudy
2:07 AM 62.6 °F 57.2 °F 82% 30.06 in 10.0 mi ESE 6.9 mph - N/A   Scattered Clouds
2:51 AM 62.1 °F 57.0 °F 84% 30.03 in 10.0 mi East 9.2 mph - N/A   Partly Cloudy
3:31 AM 62.6 °F 57.2 °F 82% 30.03 in 10.0 mi East 8.1 mph - N/A   Mostly Cloudy
3:42 AM 62.6 °F 57.2 °F 82% 30.02 in 10.0 mi East 9.2 mph - N/A   Scattered Clouds
3:51 AM 63.0 °F 57.9 °F 84% 30.02 in 10.0 mi East 8.1 mph - N/A   Partly Cloudy
4:51 AM 64.9 °F 59.0 °F 81% 30.02 in 10.0 mi East 8.1 mph - N/A   Mostly Cloudy
5:34 AM 66.2 °F 60.8 °F 83% 30.02 in 10.0 mi East 8.1 mph - N/A   Overcast
5:51 AM 66.0 °F 60.1 °F 81% 30.01 in 10.0 mi East 10.4 mph - N/A   Overcast
6:51 AM 66.0 °F 61.0 °F 84% 30.02 in 10.0 mi East 10.4 mph - 0.01 in   Overcast
7:51 AM 66.9 °F 61.0 °F 81% 30.01 in 10.0 mi East 12.7 mph - 0.00 in   Overcast
8:51 AM 68.0 °F 63.0 °F 84% 30.02 in 5.0 mi ESE 11.5 mph - 0.00 in Rain Light Rain
9:51 AM 69.1 °F 64.0 °F 84% 30.02 in 6.0 mi ESE 16.1 mph - 0.01 in   Light Drizzle
10:51 AM 71.1 °F 66.0 °F 84% 30.01 in 9.0 mi ESE 16.1 mph - 0.00 in   Light Drizzle
11:12 AM 71.6 °F 66.2 °F 83% 30.01 in 7.0 mi SE 19.6 mph - 0.00 in   Overcast
11:45 AM 73.4 °F 66.2 °F 78% 29.99 in 8.0 mi SE 19.6 mph - 0.00 in   Mostly Cloudy
11:51 AM 73.0 °F 66.9 °F 81% 29.98 in 8.0 mi SE 20.7 mph 25.3 mph 0.00 in   Mostly Cloudy
12:51 PM 75.0 °F 66.9 °F 76% 29.94 in 10.0 mi SE 25.3 mph 31.1 mph N/A   Overcast
1:12 PM 75.2 °F 66.2 °F 73% 29.92 in 10.0 mi SE 26.5 mph 33.4 mph N/A   Overcast
1:51 PM 75.0 °F 66.9 °F 76% 29.90 in 10.0 mi SE 25.3 mph 31.1 mph N/A   Overcast
2:51 PM 75.0 °F 66.9 °F 76% 29.87 in 10.0 mi SE 25.3 mph 31.1 mph N/A   Overcast
3:49 PM 75.2 °F 68.0 °F 78% 29.84 in 10.0 mi SE 25.3 mph 33.4 mph N/A   Overcast
3:51 PM 75.9 °F 68.0 °F 76% 29.84 in 10.0 mi SSE 25.3 mph 33.4 mph N/A   Overcast
4:51 PM 75.9 °F 68.0 °F 76% 29.81 in 10.0 mi SSE 24.2 mph 36.8 mph N/A   Overcast
5:51 PM 73.9 °F 68.0 °F 82% 29.80 in 10.0 mi SE 26.5 mph 33.4 mph N/A   Mostly Cloudy
6:25 PM 73.4 °F 68.0 °F 83% 29.80 in 8.0 mi SSE 26.5 mph 33.4 mph N/A   Mostly Cloudy
6:51 PM 73.0 °F 68.0 °F 84% 29.80 in 9.0 mi SSE 25.3 mph 34.5 mph N/A   Overcast
7:51 PM 73.0 °F 68.0 °F 84% 29.81 in 8.0 mi SSE 24.2 mph 31.1 mph N/A   Overcast
8:51 PM 73.0 °F 69.1 °F 87% 29.83 in 7.0 mi SSE 20.7 mph - N/A   Overcast
9:51 PM 73.0 °F 68.0 °F 84% 29.84 in 7.0 mi SSE 19.6 mph - N/A   Overcast
10:51 PM 73.0 °F 69.1 °F 87% 29.83 in 7.0 mi SSE 24.2 mph 32.2 mph N/A   Overcast
11:51 PM 73.0 °F 68.0 °F 84% 29.82 in 7.0 mi SSE 23.0 mph 31.1 mph N/A   Overcast